Simultaneous Nadir Overpasses (SNOs) Predictions

Prediction of SNOs between GOES-16 and NOAA-19 Satellite Orbit:

Table of predicted SNOs for the next 14.0 days since TLE Epoch: 5/27/2023
Index Date Time (GOES-16) GOES-16 Lat,Lon NOAA-19 Lat,Lon Distance(km) Time Diff (sec)
1 05/28/2023 01:39:09 0.02, -75.20 -0.20, -76.10 103.87 80
2 05/29/2023 01:24:28 0.03, -75.20 0.48, -73.18 231.01 80
3 05/31/2023 13:47:17 -0.02, -75.23 0.61, -77.96 312.33 80
4 06/01/2023 13:32:35 -0.02, -75.24 -0.06, -75.03 22.90 80
5 06/02/2023 13:20:34 -0.03, -75.25 -0.74, -72.11 358.07 80
6 06/05/2023 01:43:21 0.03, -75.26 -0.37, -76.88 185.41 80
7 06/06/2023 01:28:39 0.04, -75.27 0.32, -73.95 149.76 80
8 06/07/2023 01:16:38 0.05, -75.28 1.00, -71.03 484.95 80
9 06/08/2023 13:51:28 -0.05, -75.30 0.77, -78.74 393.12 80
10 06/09/2023 13:39:26 -0.05, -75.32 0.08, -75.82 57.35 80
